TimeEST,TemperatureF,Dew PointF,Humidity,Sea Level PressureIn,VisibilityMPH,Wind Direction,Wind SpeedMPH,Gust SpeedMPH,PrecipitationIn,Events,Conditions,WindDirDegrees,DateUTC
12:53 AM,6.1,1.9,83,30.40,4.0,Calm,Calm,-,N/A,,Clear,0,2014-02-04 05:53:00
1:53 AM,3.0,-2.0,80,30.38,5.0,SE,3.5,-,N/A,,Haze,130,2014-02-04 06:53:00
2:53 AM,3.9,-0.0,84,30.40,5.0,Calm,Calm,-,N/A,,Clear,0,2014-02-04 07:53:00
3:53 AM,8.1,3.0,80,30.39,5.0,ENE,3.5,-,N/A,,Haze,70,2014-02-04 08:53:00
4:53 AM,8.1,5.0,87,30.41,5.0,Calm,Calm,-,N/A,,Clear,0,2014-02-04 09:53:00
5:53 AM,10.0,5.0,80,30.43,4.0,Calm,Calm,-,N/A,,Haze,0,2014-02-04 10:53:00
6:53 AM,14.0,10.0,84,30.40,6.0,ENE,5.8,-,N/A,,Clear,70,2014-02-04 11:53:00
7:53 AM,15.1,10.9,84,30.42,7.0,NNE,5.8,-,N/A,,Clear,20,2014-02-04 12:53:00
8:53 AM,15.1,10.9,84,30.46,6.0,NE,5.8,-,N/A,,Clear,50,2014-02-04 13:53:00
9:53 AM,17.1,12.9,84,30.43,9.0,ENE,9.2,-,N/A,,Clear,60,2014-02-04 14:53:00
10:53 AM,19.9,14.0,78,30.42,10.0,East,10.4,-,N/A,,Clear,80,2014-02-04 15:53:00
11:53 AM,21.0,14.0,74,30.38,10.0,ENE,11.5,-,N/A,,Clear,60,2014-02-04 16:53:00
12:53 PM,23.0,14.0,68,30.32,10.0,ENE,10.4,-,N/A,,Scattered Clouds,60,2014-02-04 17:53:00
1:53 PM,23.0,14.0,68,30.32,10.0,ENE,8.1,-,N/A,,Mostly Cloudy,60,2014-02-04 18:53:00
2:53 PM,23.0,14.0,68,30.32,10.0,East,8.1,-,N/A,,Overcast,80,2014-02-04 19:53:00
3:53 PM,23.0,14.0,68,30.30,10.0,East,8.1,-,N/A,,Overcast,80,2014-02-04 20:53:00
4:40 PM,23.0,16.0,74,30.24,4.0,NE,10.4,-,0.00,Snow,Light Snow,40,2014-02-04 21:40:00
4:45 PM,23.0,16.0,74,30.24,1.8,NE,11.5,-,0.00,Snow,Light Snow,50,2014-02-04 21:45:00
4:53 PM,21.9,16.0,78,30.27,0.5,NE,15.0,-,0.00,Snow,Snow,40,2014-02-04 21:53:00
5:01 PM,21.9,17.1,82,30.24,0.2,NE,13.8,-,0.00,Snow,Heavy Snow,40,2014-02-04 22:01:00
5:22 PM,21.0,17.1,85,30.24,0.5,NE,15.0,-,0.00,Fog-Snow,Snow,50,2014-02-04 22:22:00
5:36 PM,21.0,18.0,88,30.23,0.8,NE,13.8,-,0.00,Snow,Light Snow,40,2014-02-04 22:36:00
5:53 PM,21.0,18.0,88,30.26,1.0,NE,13.8,-,0.00,Snow,Light Snow,40,2014-02-04 22:53:00
6:00 PM,21.0,18.0,88,30.22,0.8,NE,13.8,-,0.01,Snow,Light Snow,40,2014-02-04 23:00:00
6:17 PM,21.0,18.0,88,30.23,0.5,NE,15.0,-,0.01,Fog-Snow,Snow,50,2014-02-04 23:17:00
6:30 PM,19.9,17.1,89,30.23,-9999.0,NNE,17.3,-,0.02,Snow,Heavy Snow,30,2014-02-04 23:30:00
6:53 PM,19.9,17.1,89,30.26,0.5,NE,17.3,-,0.02,Fog-Snow,Snow,40,2014-02-04 23:53:00
7:53 PM,19.9,17.1,89,30.19,0.5,NE,17.3,-,0.02,Fog-Snow,Snow,50,2014-02-05 00:53:00
8:04 PM,19.9,17.1,89,30.15,0.8,ENE,19.6,24.2,0.01,Snow,Light Snow,60,2014-02-05 01:04:00
8:09 PM,19.9,17.1,89,30.15,1.0,ENE,17.3,-,0.01,Snow,Light Snow,60,2014-02-05 01:09:00
8:53 PM,19.9,17.1,89,30.18,1.2,ENE,12.7,-,0.01,Snow,Light Snow,60,2014-02-05 01:53:00
9:22 PM,19.9,17.1,89,30.11,0.8,ENE,18.4,-,0.00,Snow,Light Snow,60,2014-02-05 02:22:00
9:31 PM,19.9,17.1,89,30.10,0.8,ENE,18.4,-,0.00,Snow,Light Snow,60,2014-02-05 02:31:00
9:43 PM,19.9,17.1,89,30.11,1.0,NE,16.1,-,0.00,Snow,Light Snow,50,2014-02-05 02:43:00
9:53 PM,19.9,17.1,89,30.13,1.0,NE,19.6,-,0.00,Snow,Light Snow,50,2014-02-05 02:53:00
10:05 PM,19.9,17.1,89,30.09,1.0,ENE,17.3,-,0.01,Snow,Light Snow,60,2014-02-05 03:05:00
10:22 PM,19.9,17.1,89,30.08,0.8,NE,16.1,-,0.01,Snow,Light Snow,50,2014-02-05 03:22:00
10:30 PM,21.0,17.1,85,30.07,1.0,NE,17.3,-,0.01,Snow,Light Snow,50,2014-02-05 03:30:00
10:53 PM,21.0,18.0,88,30.10,1.5,ENE,16.1,-,0.01,Snow,Light Snow,60,2014-02-05 03:53:00
11:43 PM,21.0,18.0,88,30.03,-9999.0,NE,19.6,25.3,0.00,Snow,Light Snow,50,2014-02-05 04:43:00
11:51 PM,21.2,17.6,86,30.02,1.5,NE,23.0,28.8,0.00,Snow,Light Snow,50,2014-02-05 04:51:00
11:53 PM,21.0,18.0,88,30.04,1.5,NE,18.4,28.8,0.00,Snow,Light Snow,50,2014-02-05 04:53:00